Content
SEND FEEDBACK

Daily
Averages
Monthly
Summary
Mexico

CANCUN, QUINTANA ROO


Home > North America > Mexico > Quintana Roo
Elevation: 30 feet     Latitude: 21 09N     Longitude: 086 49W

WEATHER
 
SELECT A DAY
Number of Records: 167,246;   Date Range: 1/1/95 - 11/27/14
 
SHARE

PRINT THIS DATA

[ ← Previous Day ]
WEATHER ALMANAC - MAY 7, 2013
[ Next Day → ]
[ °C ]   °F
Weather ElementAverageHighLow
Temperature76.1 °F84.2 °F (1:45 pm)64.4 °F (4:42 am)
Dewpoint64.9 °F68 °F (5:40 pm)62.6 °F (3:44 am)
Humidity69.7 %94 % (2:43 am)51 % (11:44 am)
Barometer30.02 in30.07 in (9:42 am)29.98 in (3:44 am)
Wind Speed5.8 mph13.8 mph (12:44 pm)
Weather ElementAverage
Visibility7 mi
Wind DirectionESE (114.8 °)

Weather ElementTotal
Precipitation---
Cooling Degree Days9.3 (Base 65)
Growing Degree Days24.3 (Base 50)
Averaged from 23 records on May 7, 2013
WEATHER CONDITIONS BREAKOUT
WIND DIRECTION BREAKOUT
WEATHER BY HOUR - MAY 7, 2013
[ °C ]   °F
Local TimeTemperatureDewpointHumidityBarometerVisibilityWind DirectionWind SpeedGust SpeedPrecipitationEventsConditions
1:45 AM68.0 °F64.4 °F88 %30.00 in7.0 miNW (310°)3.5 mphScattered Clouds
2:43 AM66.2 °F64.4 °F94 %29.99 in7.0 miNNW (330°)3.5 mphScattered Clouds
3:44 AM66.2 °F62.6 °F88 %29.98 in7.0 miCalmScattered Clouds
4:42 AM64.4 °F62.6 °F94 %29.99 in7.0 miCalmScattered Clouds
5:44 AM64.4 °F62.6 °F94 %30.01 in7.0 miNW (320°)3.5 mphOvercast
6:44 AM66.2 °F62.6 °F88 %30.02 in7.0 miCalmScattered Clouds
7:45 AM73.4 °F66.2 °F78 %30.04 in7.0 miCalmScattered Clouds
8:45 AM80.6 °F64.4 °F58 %30.05 in7.0 miSE (130°)6.9 mphScattered Clouds
9:42 AM80.6 °F64.4 °F58 %30.07 in7.0 miSE (140°)6.9 mphPartly Cloudy
10:40 AM82.4 °F64.4 °F54 %30.07 in7.0 miESE (120°)9.2 mphPartly Cloudy
11:44 AM82.4 °F62.6 °F51 %30.06 in7.0 miEast (80°)6.9 mphPartly Cloudy
12:44 PM82.4 °F64.4 °F54 %30.05 in7.0 miEast (100°)13.8 mphPartly Cloudy
1:45 PM84.2 °F64.4 °F51 %30.03 in7.0 miENE (70°)8.1 mphPartly Cloudy
2:40 PM82.4 °F64.4 °F54 %30.01 in7.0 miENE (70°)10.4 mphPartly Cloudy
3:48 PM82.4 °F66.2 °F58 %30.00 in7.0 miEast (90°)9.2 mphClear
4:42 PM82.4 °F66.2 °F58 %29.99 in7.0 miEast (100°)9.2 mphClear
5:40 PM80.6 °F68.0 °F65 %29.99 in7.0 miEast (100°)6.9 mphClear
6:41 PM80.6 °F68.0 °F65 %30.00 in7.0 miESE (110°)6.9 mphScattered Clouds
7:40 PM77.0 °F66.2 °F69 %30.00 in7.0 miESE (110°)5.8 mphScattered Clouds
8:42 PM77.0 °F64.4 °F65 %30.02 in7.0 miESE (110°)5.8 mphScattered Clouds
9:48 PM75.2 °F66.2 °F73 %29.99 in7.0 miESE (120°)5.8 mphScattered Clouds
10:47 PM75.2 °F66.2 °F73 %30.05 in7.0 miESE (110°)5.8 mphScattered Clouds
11:46 PM75.2 °F66.2 °F73 %30.05 in7.0 miESE (120°)5.8 mphScattered Clouds
Hourly data recorded from MMUN, located miles away from Cancun, Quintana Roo







STORIES FROM OUR PARTNERS